Regional Weather Roundup
Issued by NWS

Home | Current Version | Previous Version | Text Only | Print | Product List | Glossary Off
Versions: 1 2 3 4 5 6 7 8 9 10 11 12 13 14 15 16 17 18 19 20 21 22 23 24 25 26 27 28 29 30 31 32 33 34 35 36 37 38 39 40 41 42 43 44 45 46 47 48 49 50

482
ASUS43 KBIS 220802
RWRND

NORTH DAKOTA REGIONAL WEATHER ROUNDUP
NATIONAL WEATHER SERVICE BISMARCK ND
300 AM CDT SUN APR 22 2018

NOTE: "FAIR" INDICATES FEW OR NO CLOUDS BELOW 12,000 FEET WITH NO
SIGNIFICANT WEATHER AND/OR OBSTRUCTIONS TO VISIBILITY.


NDZ001>003-009>011-017-220900-
NORTHWEST NORTH DAKOTA

CITY           SKY/WX    TMP DP  RH WIND       PRES   REMARKS
WILLISTON      CLEAR     41  33  73 NW9       30.05S
MINOT          CLOUDY    44  36  73 S12G21    30.06R
$$

NDZ018>021-031>035-040>046-220900-
SOUTHWEST NORTH DAKOTA

CITY           SKY/WX    TMP DP  RH WIND       PRES   REMARKS
BISMARCK       CLEAR     44  35  70 S10       30.17S
DICKINSON      MOCLDY    39  36  89 S15       30.07R
GARRISON         N/A     39  35  86 SW7       30.12R
HETTINGER ARPT PTCLDY    38  34  85 SE12      30.11F
$$

NDZ004>008-012>016-024-026-027-054-220900-
NORTHEAST NORTH DAKOTA

CITY           SKY/WX    TMP DP  RH WIND       PRES   REMARKS
GRAND FORKS    FAIR      39  38  96 S12       30.23S
GRND FRKS AFB  FAIR      39  37  90 S9        30.22S
DEVILS LAKE    FAIR      43  32  65 S15       30.17F
$$

NDZ022-023-025-028>030-036>039-047>053-220900-
SOUTHEAST NORTH DAKOTA

CITY           SKY/WX    TMP DP  RH WIND       PRES   REMARKS
FARGO          FAIR      41  35  79 S10       30.27S
JAMESTOWN      CLEAR     35  31  85 S8        30.22S
$$





USA.gov is the U.S. government's official web portal to all federal, state and local government web resources and services.